{"data":{"norad_id":44071,"intl_designator":"2019-014A","name":"WGS 10 (USA 291)","alt_names":[],"object_type":"PAYLOAD","status":"ACTIVE","operator":null,"country":"US","launch_date":"2019-03-16","launch_site_code":"AFETR","launch_vehicle":null,"mission":null,"orbit_class":"UNKNOWN","rcs_meters":null,"size_class":null,"mass_kg":null,"dimensions":null,"purposes":["comms"],"wikipedia_slug":null,"has_3d_model":false,"image_url":null,"decayed_at":null,"tle_current":{"epoch":"2026-05-24T12:37:46.270272Z","epoch_age_seconds":126198,"freshness":"FRESH","line1":"1 44071U 19014A   26144.52622998  .00000042  00000+0  00000+0 0  9995","line2":"2 44071   0.0151 334.1212 0000448  18.8951 138.8528  1.00271850 26387","mean_motion":1.0027185,"eccentricity":4.48e-5,"inclination_deg":0.0151,"raan_deg":334.1212,"arg_perigee_deg":18.8951,"mean_anomaly_deg":138.8528,"bstar":0,"rev_number":2638,"period_min":1436.0959730971,"perigee_km":35784.687760165,"apogee_km":35788.465718516,"semimajor_km":42164.713739341,"source":"CELESTRAK","updated_at":"2026-05-25T13:38:14.062542Z"}}}